sat.trackr.live / text

‹ back to catalog

ONEWEB-0550

NORAD 56052 · 2023-043G

PAYLOAD ACTIVE UNKNOWN

§ Identity

Operator
Country
UK
Launch date
2023-03-26
Launch site
SRILR
Launch vehicle
Mass (kg)
RCS (m²)

Purposes: comms

External: N2YO · Heavens-Above · Gunter

§ Orbital elements

Epoch: 2026-05-25T05:12:35.250624Z

Period
108.94 min
Inclination
87.9251°
Eccentricity
0.0002087
Mean motion
13.21824813 rev/d
Perigee alt
1,176.2 km
Apogee alt
1,179.3 km
Semi-major
7,555.9 km
B*
2.1946e-4
RAAN
248.5485°
Arg perigee
94.7594°
Mean anomaly
265.3778°
Rev number
15,519

§ Raw data

ONEWEB-05501 56052U 23043G   26145.21707466  .00000104  00000+0  21946-3 0  99902 56052  87.9251 248.5485 0002087  94.7594 265.3778 13.21824813155195

JSON: /api/v1/satellites/56052 · /tle

For live sub-satellite position, see the globe view (requires WebGL).

§ Visibility from observer

Set your observer location to see the next 7 days of passes ≥ 10°. The values pass through the URL so the page stays shareable.

No JS? Fill the form by hand. The geolocation button needs JavaScript.